Weather History for Olivia, MN

Change the Weather History Date:

Monday, October 7, 2013

  Actual Average (KRWF) Record (KRWF)
Temperature  
Mean Temperature 54 °F -  
Max Temperature 69 °F 63 °F 87 °F (1980)
Min Temperature 39 °F 40 °F 21 °F (2000)
Degree Days  
Heating Degree Days 11    
Growing Degree Days 4 (Base 50)    
Moisture  
Dew Point 39 °F    
Average Humidity 62    
Maximum Humidity 87    
Minimum Humidity 28    
Precipitation  
Precipitation 0.00 in - - ()
Sea Level Pressure  
Sea Level Pressure 29.92 in    
Wind  
Wind Speed 4 mph (SW)    
Max Wind Speed 9 mph    
Max Gust Speed -    
Visibility 10 miles    
Events      
Averages and records for this station are not official NWS values.
T = Trace of Precipitation, MM = Missing Value Source: NWS Daily Summary

Daily Weather History Graph

Daily Weather History Graph

Search for Another Location

Airport:

Trip Planner

Search our weather history database for the weather conditions in past years. The results will help you decide how hot, cold, wet, or windy it might be!

Date:

Astronomy

Oct. 07, 2013 Rise Set
Actual Time 7:25 AM CDT 6:49 PM CDT
Civil Twilight 6:56 AM CDT 7:18 PM CDT
Nautical Twilight 6:22 AM CDT 7:52 PM CDT
Astronomical Twilight 5:48 AM CDT 8:26 PM CDT
Moon 10:24 AM CDT (10/7) 8:26 PM CDT (10/7)
Length of Visible Light 12h 21m
Length of Day
11h 23m
Waxing Crescent, 9% of the Moon is Illuminated
Oct 7
Waxing Crescent
Oct 11
First Quarter
Oct 18
Full
Oct 26
Last Quarter
Nov 3
New

Hourly Weather History & Observations

Time (CDT) Temp. Windchill Dew Point Humidity Pressure Visibility Wind Dir Wind Speed Gust Speed Precip Events Conditions
12:13 AM 42.8 °F 40.1 °F 37.4 °F 81% 29.88 in 10.0 mi West 4.6 mph - N/A   Scattered Clouds
12:33 AM 44.6 °F 42.2 °F 37.4 °F 76% 29.88 in 10.0 mi West 4.6 mph - N/A   Mostly Cloudy
12:53 AM 42.8 °F - 37.4 °F 81% 29.88 in 10.0 mi Calm Calm - N/A   Scattered Clouds
1:14 AM 42.8 °F 40.1 °F 37.4 °F 81% 29.88 in 10.0 mi WSW 4.6 mph - N/A   Scattered Clouds
1:33 AM 41.0 °F 39.0 °F 35.6 °F 81% 29.87 in 10.0 mi WSW 3.5 mph - N/A   Scattered Clouds
1:53 AM 41.0 °F 38.0 °F 35.6 °F 81% 29.87 in 10.0 mi WSW 4.6 mph - N/A   Clear
2:13 AM 41.0 °F 39.0 °F 37.4 °F 87% 29.87 in 10.0 mi SW 3.5 mph - N/A   Clear
2:34 AM 39.2 °F 35.9 °F 35.6 °F 87% 29.87 in 10.0 mi WSW 4.6 mph - N/A   Clear
2:54 AM 41.0 °F 38.0 °F 37.4 °F 87% 29.87 in 10.0 mi WSW 4.6 mph - N/A   Clear
3:14 AM 41.0 °F 38.0 °F 37.4 °F 87% 29.86 in 10.0 mi WSW 4.6 mph - N/A   Clear
3:33 AM 41.0 °F 38.0 °F 35.6 °F 81% 29.86 in 10.0 mi WSW 4.6 mph - N/A   Clear
3:53 AM 41.0 °F 38.0 °F 37.4 °F 87% 29.86 in 10.0 mi WSW 4.6 mph - N/A   Clear
4:13 AM 41.0 °F 38.0 °F 37.4 °F 87% 29.86 in 10.0 mi WSW 4.6 mph - N/A   Clear
4:34 AM 39.2 °F 35.0 °F 35.6 °F 87% 29.86 in 10.0 mi West 5.8 mph - N/A   Clear
4:54 AM 42.8 °F 39.3 °F 37.4 °F 81% 29.86 in 10.0 mi West 5.8 mph - N/A   Clear
5:13 AM 41.0 °F 39.0 °F 37.4 °F 87% 29.87 in 10.0 mi West 3.5 mph - N/A   Clear
5:34 AM 41.0 °F 37.1 °F 35.6 °F 81% 29.87 in 10.0 mi West 5.8 mph - N/A   Clear
5:53 AM 41.0 °F 36.4 °F 37.4 °F 87% 29.88 in 10.0 mi West 6.9 mph - N/A   Clear
6:14 AM 42.8 °F 38.6 °F 37.4 °F 81% 29.88 in 10.0 mi WNW 6.9 mph - N/A   Clear
6:33 AM 42.8 °F 39.3 °F 37.4 °F 81% 29.89 in 10.0 mi NW 5.8 mph - N/A   Clear
6:53 AM 42.8 °F 38.6 °F 37.4 °F 81% 29.89 in 10.0 mi NW 6.9 mph - N/A   Clear
7:14 AM 42.8 °F 39.3 °F 37.4 °F 81% 29.90 in 10.0 mi NW 5.8 mph - N/A   Clear
7:33 AM 42.8 °F 38.6 °F 37.4 °F 81% 29.91 in 10.0 mi NW 6.9 mph - N/A   Clear
7:53 AM 42.8 °F 38.0 °F 37.4 °F 81% 29.92 in 10.0 mi NW 8.1 mph - N/A   Clear
8:14 AM 42.8 °F 40.1 °F 39.2 °F 87% 29.93 in 10.0 mi NW 4.6 mph - N/A   Clear
8:33 AM 44.6 °F 41.4 °F 39.2 °F 81% 29.93 in 10.0 mi NW 5.8 mph - N/A   Clear
8:53 AM 46.4 °F 42.9 °F 41.0 °F 81% 29.94 in 10.0 mi NW 6.9 mph - N/A   Clear
9:14 AM 50.0 °F - 42.8 °F 76% 29.95 in 10.0 mi NW 6.9 mph - N/A   Clear
9:34 AM 50.0 °F - 42.8 °F 76% 29.95 in 10.0 mi NW 3.5 mph - N/A   Clear
9:53 AM 51.8 °F - 42.8 °F 71% 29.96 in 10.0 mi NNW 4.6 mph - N/A   Clear
10:14 AM 53.6 °F - 44.6 °F 72% 29.96 in 10.0 mi North 3.5 mph - N/A   Clear
10:33 AM 53.6 °F - 42.8 °F 67% 29.96 in 10.0 mi NNE 3.5 mph - N/A   Clear
10:53 AM 57.2 °F - 44.6 °F 63% 29.97 in 10.0 mi Calm Calm - N/A   Clear
11:14 AM 57.2 °F - 42.8 °F 59% 29.97 in 10.0 mi Calm Calm - N/A   Clear
11:33 AM 59.0 °F - 42.8 °F 55% 29.97 in 10.0 mi Calm Calm - N/A   Clear
11:53 AM 60.8 °F - 41.0 °F 48% 29.98 in 10.0 mi Calm Calm - N/A   Clear
12:14 PM 60.8 °F - 39.2 °F 45% 29.97 in 10.0 mi Calm Calm - N/A   Clear
12:33 PM 62.6 °F - 37.4 °F 39% 29.98 in 5.0 mi Calm Calm - N/A   Haze
12:53 PM 62.6 °F - 35.6 °F 37% 29.98 in 10.0 mi Calm Calm - N/A   Clear
1:14 PM 64.4 °F - 35.6 °F 34% 29.97 in 10.0 mi SSW 4.6 mph - N/A   Clear
1:33 PM 62.6 °F - 33.8 °F 34% 29.97 in 10.0 mi Calm Calm - N/A   Clear
1:54 PM 64.4 °F - 35.6 °F 34% 29.96 in 10.0 mi SE 4.6 mph - N/A   Clear
2:13 PM 64.4 °F - 35.6 °F 34% 29.96 in 10.0 mi Calm Calm - N/A   Clear
2:34 PM 68.0 °F - 37.4 °F 33% 29.96 in 10.0 mi Calm Calm - N/A   Clear
2:53 PM 68.0 °F - 35.6 °F 30% 29.96 in 10.0 mi West 5.8 mph - N/A   Clear
3:14 PM 68.0 °F - 33.8 °F 28% 29.96 in 10.0 mi SSW 5.8 mph - N/A   Clear
3:33 PM 69.8 °F - 37.4 °F 31% 29.95 in 10.0 mi SW 3.5 mph - N/A   Clear
3:53 PM 69.8 °F - 37.4 °F 31% 29.95 in 10.0 mi SSW 4.6 mph - N/A   Clear
4:14 PM 69.8 °F - 37.4 °F 31% 29.94 in 10.0 mi SSW 5.8 mph - N/A   Clear
4:33 PM 69.8 °F - 39.2 °F 33% 29.94 in 10.0 mi SSW 5.8 mph - N/A   Clear
4:54 PM 69.8 °F - 39.2 °F 33% 29.94 in 10.0 mi South 4.6 mph - N/A   Clear
5:13 PM 69.8 °F - 37.4 °F 31% 29.94 in 10.0 mi South 4.6 mph - N/A   Clear
5:33 PM 69.8 °F - 39.2 °F 33% 29.94 in 10.0 mi South 4.6 mph - N/A   Clear
5:53 PM 68.0 °F - 39.2 °F 35% 29.93 in 10.0 mi South 4.6 mph - N/A   Clear
6:14 PM 64.4 °F - 41.0 °F 42% 29.93 in 10.0 mi South 4.6 mph - N/A   Clear
6:33 PM 62.6 °F - 39.2 °F 42% 29.93 in 10.0 mi SSE 3.5 mph - N/A   Clear
6:53 PM 60.8 °F - 41.0 °F 48% 29.93 in 10.0 mi SE 3.5 mph - N/A   Clear
7:14 PM 59.0 °F - 39.2 °F 48% 29.93 in 10.0 mi SE 4.6 mph - N/A   Clear
7:34 PM 59.0 °F - 41.0 °F 51% 29.93 in 10.0 mi SE 4.6 mph - N/A   Clear
7:53 PM 57.2 °F - 41.0 °F 55% 29.93 in 10.0 mi SE 4.6 mph - N/A   Clear
8:14 PM 55.4 °F - 41.0 °F 58% 29.94 in 10.0 mi SE 4.6 mph - N/A   Clear
8:33 PM 53.6 °F - 41.0 °F 62% 29.93 in 10.0 mi SE 4.6 mph - N/A   Clear
8:54 PM 55.4 °F - 41.0 °F 58% 29.94 in 10.0 mi SE 5.8 mph - N/A   Clear
9:13 PM 53.6 °F - 39.2 °F 58% 29.94 in 10.0 mi SE 5.8 mph - N/A   Clear
9:33 PM 53.6 °F - 41.0 °F 62% 29.93 in 10.0 mi SE 4.6 mph - N/A   Clear
9:54 PM 53.6 °F - 42.8 °F 67% 29.93 in 10.0 mi SE 4.6 mph - N/A   Clear
10:14 PM 53.6 °F - 41.0 °F 62% 29.93 in 10.0 mi SE 4.6 mph - N/A   Clear
10:33 PM 51.8 °F - 41.0 °F 67% 29.92 in 10.0 mi SE 9.2 mph - N/A   Clear
10:54 PM 51.8 °F - 41.0 °F 67% 29.92 in 10.0 mi SE 8.1 mph - N/A   Clear
11:13 PM 51.8 °F - 41.0 °F 67% 29.92 in 10.0 mi SE 8.1 mph - N/A   Clear
11:33 PM 51.8 °F - 42.8 °F 71% 29.92 in 10.0 mi SE 6.9 mph - N/A   Clear
11:54 PM 51.8 °F - 42.8 °F 71% 29.92 in 10.0 mi SE 8.1 mph - N/A   Clear